FENGYUN 1C

Last updated on Fri Jun 10 2016 05:47:20 GMT+0000 (Coordinated Universal Time)

1 25730U 99025A 16161.49334730 .00000267 00000-0 16323-3 0 9993 2 25730 98.9764 132.0893 0017941 192.8482 279.4762 14.14236359879687
UTC large
Height (km)
Speed (km/s)
/
Latitude / Longitude
Inclination (degrees)
Orbital Period (minutes)
Azimuth
Elevation
Range (km)
Doppler Factor

Next 0 passes for location: London (51.5072 / 0.1276)

Sorry there are no passes over London.
FENGYUN 1C